TimeCDT,TemperatureF,Dew PointF,Humidity,Sea Level PressureIn,VisibilityMPH,Wind Direction,Wind SpeedMPH,Gust SpeedMPH,PrecipitationIn,Events,Conditions,WindDirDegrees,DateUTC
12:55 AM,50.2,47.7,91,30.03,10.0,SSW,3.5,-,N/A,,Overcast,210,2012-10-10 05:55:00
1:55 AM,50.2,47.5,90,30.04,10.0,SW,4.6,-,N/A,,Mostly Cloudy,220,2012-10-10 06:55:00
2:55 AM,50.9,50.0,97,30.04,10.0,SW,4.6,-,N/A,,Overcast,220,2012-10-10 07:55:00
3:55 AM,52.0,50.9,96,30.04,10.0,SSW,6.9,-,N/A,,Overcast,210,2012-10-10 08:55:00
4:55 AM,53.4,51.3,92,30.06,10.0,SW,4.6,-,N/A,,Overcast,220,2012-10-10 09:55:00
5:55 AM,53.4,52.3,96,30.07,10.0,SW,5.8,-,N/A,,Overcast,220,2012-10-10 10:55:00
6:30 AM,53.6,51.8,94,30.09,10.0,West,5.8,-,N/A,,Overcast,260,2012-10-10 11:30:00
6:55 AM,55.4,51.8,88,30.10,10.0,West,6.9,-,N/A,,Overcast,270,2012-10-10 11:55:00
7:55 AM,55.2,48.6,78,30.13,10.0,Variable,4.6,-,N/A,,Overcast,0,2012-10-10 12:55:00
8:55 AM,52.7,45.1,75,30.17,10.0,Variable,5.8,-,N/A,,Overcast,0,2012-10-10 13:55:00
9:55 AM,53.8,40.6,61,30.20,10.0,Calm,Calm,-,N/A,,Overcast,0,2012-10-10 14:55:00
11:55 AM,60.6,36.5,41,30.22,10.0,NW,6.9,18.4,N/A,,Clear,310,2012-10-10 16:55:00
12:55 PM,61.0,37.6,42,30.22,10.0,WNW,11.5,19.6,N/A,,Clear,290,2012-10-10 17:55:00
1:55 PM,62.1,36.5,39,30.20,10.0,NW,10.4,18.4,N/A,,Clear,310,2012-10-10 18:55:00
2:55 PM,62.1,35.2,37,30.20,10.0,Variable,6.9,-,N/A,,Clear,0,2012-10-10 19:55:00
3:55 PM,61.0,32.9,35,30.20,10.0,Variable,4.6,-,N/A,,Clear,0,2012-10-10 20:55:00
4:55 PM,60.4,31.6,34,30.20,10.0,Variable,4.6,-,N/A,,Clear,0,2012-10-10 21:55:00
5:55 PM,57.6,30.7,36,30.21,10.0,Calm,Calm,-,N/A,,Clear,0,2012-10-10 22:55:00
6:55 PM,52.7,32.0,45,30.23,10.0,Variable,3.5,-,N/A,,Clear,0,2012-10-10 23:55:00
7:55 PM,50.5,32.2,49,30.24,10.0,Calm,Calm,-,N/A,,Clear,0,2012-10-11 00:55:00
8:55 PM,48.6,31.3,51,30.25,10.0,NNE,3.5,-,N/A,,Clear,30,2012-10-11 01:55:00
9:55 PM,45.9,32.0,58,30.27,10.0,Calm,Calm,-,N/A,,Clear,0,2012-10-11 02:55:00
10:55 PM,43.2,32.7,67,30.27,10.0,Calm,Calm,-,N/A,,Clear,0,2012-10-11 03:55:00
11:55 PM,40.8,34.5,78,30.27,10.0,Calm,Calm,-,N/A,,Clear,0,2012-10-11 04:55:00